www.pogodaiklimat.ru

Погода и климат >> Архив погоды >> Канада >> Henderickson Auto


ПОГОДА в Henderickson Auto

  • Прогноз погоды в Henderickson Auto
  • Монитор погоды в Henderickson Auto
  • Климат города

АРХИВ ПОГОДЫ в Henderickson Auto

Время (UTC), дата Ветер
(напр.,м/с)
 
Видим.   Явления Облачность Т
(С)
Тd
(С)
f
(%)
Тe
(С)
Тes
(С)
Комфортность P
(гПа)
Po
(гПа)
Тmin
(С)
Tmax
(С)
R
(мм)
R24
(мм)
S
(см)
06 17.05 В 1 н/о н/о +0.5 -0.2 95 -2 -2 1015.3 850.1 -2.7 +5.5
09 17.05 ЮВ 1 н/о н/о +0.1 -0.3 97 -2 -2 1016.1 850.7 0.7
12 17.05 В 2 н/о {осадки} н/о +0.2 -0.1 98 -4 -4 1016.9 851.5 +0.1 +5.5 0.9
15 17.05 В 3 н/о н/о +1.1 +0.2 94 -4 -4 1018.0 852.4 0.2
18 17.05 ЮВ 4 н/о {осадки} н/о +3.3 +1.6 89 -2 -2 1018.7 853.1 +0.1 +3.8 0.5
00 18.05 З 1 н/о н/о +5.1 +2.4 83 +5 +5 1018.2 852.9
03 18.05 В 2 н/о н/о +3.3 +2.2 92 0 0 1018.2 852.8
06 18.05 СЗ 1 н/о н/о +0.3 -0.2 96 -0 -0 1018.4 852.8 2
09 18.05 СЗ 1 н/о н/о -0.6 -0.9 98 -3 -3 1018.6 852.8
12 18.05 СЗ 1 н/о н/о -1.3 -1.8 96 -2 -2 1018.5 852.9 -1.3
15 18.05 З 2 н/о н/о +5.9 +1.3 72 +4 +4 1018.0 853.4 0.3
18 18.05 З 4 н/о {осадки} н/о +8.8 -2.0 47 +7 +7 1018.4 853.7 +10.1 0.3
21 18.05 З 4 н/о н/о +7.0 -1.4 55 +4 +4 1019.5 854.2
00 19.05 З 2 н/о н/о +10.6 -3.9 36 +10 +10 1017.7 853.1 -1.4 +12.8
03 19.05 З 1 н/о н/о +8.3 -1.9 49 +8 +8 1017.0 853.3
06 19.05 З 1 н/о н/о -0.7 -2.4 88 -1 -1 1018.2 853.4 -1.4 +12.8 21
09 19.05 штиль 0 н/о н/о +1.1 -0.4 90 -0 -0 1018.6 853.7
12 19.05 штиль 0 н/о н/о +0.3 -0.9 92 -1 -1 1018.0 853.6 -1.6 +12.8
15 19.05 В 1 н/о н/о +8.7 +0.1 55 +9 +9 1016.9 853.7
18 19.05 З 3 н/о н/о +10.2 -1.9 43 +9 +9 1017.7 853.2 -1.6 +11.6
21 19.05 З 4 н/о н/о +12.4 -0.4 41 +11 +11 1016.4 852.7
00 20.05 З 3 н/о н/о +10.7 -1.8 42 +9 +9 1017.1 852.9 -1.6 +13.2
03 20.05 З 3 н/о н/о +9.7 -1.5 46 +8 +8 1016.3 853.4
06 20.05 СЗ 2 н/о н/о +0.1 -2.0 86 -3 -3 1019.0 854.4 -1.6 +13.2 18
09 20.05 З 1 н/о н/о -2.5 -3.1 96 -3 -3 1019.8 855.0
12 20.05 З 1 н/о н/о -3.2 -4.0 94 -6 -6 1021.2 855.8 -3.6 +13.2
15 20.05 З 3 н/о н/о +10.5 -2.2 41 +9 +9 1020.0 856.8
18 20.05 ЮЗ 2 н/о н/о +13.5 -2.9 32 +13 +13 1021.6 857.1 -3.6 +13.6
21 20.05 З 3 н/о н/о +15.5 -3.4 27 +15 +15 1021.4 856.8
00 21.05 З 3 н/о н/о +16.4 -4.5 23 +16 +16 1021.5 856.9 -3.6 +16.8
03 21.05 З 3 н/о н/о +13.8 -4.1 29 +13 +13 1020.0 857.4
06 21.05 СЗ 1 н/о н/о -0.6 -2.8 85 -1 -1 1023.5 858.6 -3.6 +16.8
09 21.05 З 1 н/о н/о -2.3 -3.6 91 -5 -5 1024.1 859.1
12 21.05 З 1 н/о {осадки} н/о -2.7 -3.7 93 -4 -4 1024.5 859.5 -2.9 +16.8 0.3
15 21.05 З 3 н/о {осадки} н/о +13.2 -1.9 35 +13 +13 1022.4 859.9 0.5
18 21.05 З 3 н/о {осадки} н/о +16.4 -4.3 24 +16 +16 1024.5 859.9 -2.9 +16.8 0.5
21 21.05 З 4 н/о н/о +19.0 -5.2 19 +19 +19 1023.5 859.2
00 22.05 З 5 н/о н/о +19.0 -5.8 18 +19 +19 1023.4 859.0 -2.9 +19.9
03 22.05 СЗ 2 н/о н/о +16.2 -4.2 24 +17 +17 1021.4 859.4
06 22.05 З 1 н/о н/о +2.5 -2.0 72 +2 +2 1022.9 859.0 -2.9 +19.9 22
09 22.05 штиль 0 н/о н/о -1.2 -2.4 92 -2 -2 1023.9 859.7
12 22.05 З 1 н/о н/о -1.4 -2.8 90 -4 -4 1023.6 859.4 -2.3 +19.9
15 22.05 В 2 н/о {осадки} н/о +13.0 +2.5 49 +13 +13 1021.0 859.0 0.6
18 22.05 З 3 н/о {осадки} н/о +18.9 +0.3 29 +19 +19 1021.8 858.5 -2.3 +18.9 0.6
21 22.05 З 3 н/о н/о +20.1 -0.9 24 +21 +21 комфорт 1021.3 857.7
00 23.05 СЗ 2 н/о н/о +19.5 -4.3 20 +20 +20 1020.2 856.6 -2.3 +21.7
03 23.05 Ю 1 н/о н/о +17.6 -0.6 29 +19 +19 1016.4 855.4
06 23.05 З 1 н/о н/о +4.5 +0.6 76 +5 +5 1016.5 854.3 -2.3 +21.7
09 23.05 штиль 0 н/о н/о +0.2 -1.7 87 -1 -1 1014.7 852.3
12 23.05 СЗ 1 н/о н/о -1.4 -2.5 92 -4 -4 1012.8 850.4 -2.1 +21.7
15 23.05 В 1 н/о н/о +13.3 +5.1 58 +14 +14 1009.1 849.3 0.8
18 23.05 З 3 н/о {осадки} н/о +19.0 -4.3 20 +19 +19 1007.4 846.7 -2.1 +20.6 0.8
21 23.05 Ю 3 н/о н/о +19.1 -7.0 16 +19 +19 1004.5 843.6
00 24.05 ЮЗ 3 н/о н/о +20.8 -4.0 19 +21 +21 комфорт 999.0 839.0 -2.1 +21.9
03 24.05 З 4 н/о н/о +14.5 -1.4 33 +14 +14 994.2 836.3

 

Местоположение метеостанции Henderickson Auto (Канада): широта 53.78 долгота -118.40 высота над уровнем моря 1432 м.

В архиве по умолчанию представлена погода в Henderickson Auto за последнюю неделю. Архивные данные за месяц целиком и за предыдущие месяцы, начиная с января 2011 года, Вы можете получить, выбрав интересующий диапазон дат из раскрывающегося списка и нажав кнопку "Ввод!".

Внимание! Время в таблицах - всемирное. Для получения местного времени необходимо прибавить поправку, которая в Henderickson Auto равна -7 ч.

Смотрите также архив погоды в соседних городах и на ближайших метеорологических станциях:

Погода в Willow Creek 1 (Канада) (45 км)
Погода в Jasper Warden (Канада) (98 км)
Погода в Jasper (Канада) (104 км)
Погода в Edson AB (Канада) (134 км)
Погода в Grande Prairie (Канада) (158 км)
Погода в Valley View Agdm (Канада) (166 км)
Погода в Beaverlodge Cda (Канада) (171 км)
Погода в Teepee Creek Agcm (Канада) (175 км)
Погода в Whitecourt (Канада) (181 км)
Погода в Whitecourt Alta (Канада) (181 км)

Пояснения к столбцам:

Ветер - указаны скорость ветра в м/с - средняя за 10 мин, порывы в срок и между сроками (в фигурных скобках) и направление, откуда дует ветер: С - северный, СВ - северо-восточный, В - восточный, ЮВ - юго-восточный, Ю - южный, ЮЗ - юго-западный, З - западный, СЗ - северо-западный.
Видимость - горизонтальная дальность видимости в метрах или километрах. При видимости от 1 до 10 км при отсутствии осадков обычно наблюдается дымка, при ухудшении видимости до 1 км и менее - туман. В сухую погоду видимость может ухудшаться дымом, пылью или мглою.
Явления - указаны атмосферные явления, наблюдавшиеся в срок или в последний час перед сроком; фигурными скобками обозначены явления, наблюдавшиеся между сроками (за 1-3 часа до срока); квадратными скобками обозначены град или гололедные отложения с указанием их диаметра в мм.
Облачность - указаны через наклонную черту общая и нижняя облачность в баллах и высота нижней границы облаков в метрах; квадратными скобками обозначены формы облаков: Ci - перистые, Cs - перисто-слоистые, Cc - перисто-кучевые, Ac - высококучевые, As - высокослоистые, Sc - слоисто-кучевые, Ns - слоисто-дождевые, Cu - кучевые, Cb - кучево-дождевые. Подробнее классификацию облаков см. в Атласе облаков (PDF).
T - Температура воздуха - температура, измеренная на высоте 2 м над землей.
Td - Температура точки росы - температура, при понижении до которой содержащийся в воздухе водяной пар достигнет насыщения.
f - Относительная влажность воздуха - влажноcть воздуха, измеренная на высоте 2 м над землей.
Te - Эффективная температура - температура, которую ощущает одетый по сезону человек в тени. Характеристика душности погоды. При расчете учитывается влияние влажности воздуха и скорости ветра на теплоощущения человека.
Tes - Эффективная температура на солнце - температура, которую ощущает человек, с поправкой на солнечный нагрев. Характеристика знойности погоды. Зависит от высоты солнца над горизонтом, облачности и скорости ветра. Ночью, в пасмурную погоду, а также при ветре 12 м/с и более поправка равна нулю.
P - Атмосферное давление - приведенное к уровню моря атмосферное давление.
Po - Атмосферное давление - измеренное на уровне метеостанции атмосферное давление.
Tmin - Минимальная температура - минимум температуры воздуха на высоте 2 м над землей.
Tmax - Максимальная температура - максимум температуры воздуха на высоте 2 м над землей.
R - Количество осадков - Количество выпавших осадков за период времени, мм. При наведении курсора мыши на число - период времени, за который выпало указанное количество осадков.
R24 - Количество осадков - Количество выпавших осадков за 24 часа, мм.
S - Снежный покров - Высота снежного покрова, см. При наведении курсора мыши на число - состояние снежного покрова и степень покрытия местности в баллах.